Overview Statistics Trail Chart Weather Telemetry Raw packets
 

This is the latest recevied weather packets stored in our database for station/object K7SKM. If no packets are shown the sender has not sent any weather packets the latest 10 day(s).

<< 6 7 8 9 10 11 12 >>
Time Temp. Humidity Pressure Rain* Wind** Luminosity Snow
1788630354 14.44° C 81% 1023.1 hPa 0 mm - 95 W/m² -
1788630049 13.89° C 81% 1023.1 hPa 0 mm - 93 W/m² -
1788629746 13.89° C 81% 1023 hPa 0 mm - 91 W/m² -
1788629441 14.44° C 81% 1023.1 hPa 0 mm - 99 W/m² -
1788629139 13.89° C 81% 1023 hPa 0 mm - 116 W/m² -
1788628835 13.89° C 81% 1023 hPa 0 mm - 147 W/m² -
1788628531 13.89° C 81% 1022.9 hPa 0 mm - 109 W/m² -
1788628227 13.89° C 81% 1022.9 hPa 0 mm - 102 W/m² -
1788627923 14.44° C 81% 1022.8 hPa 0 mm - 100 W/m² -
1788627618 13.89° C 82% 1022.7 hPa 0 mm - 112 W/m² -
1788627313 13.89° C 82% 1022.9 hPa 0 mm - 117 W/m² -
1788627008 13.89° C 85% 1022.8 hPa 0 mm - 178 W/m² -
1788626702 13.89° C 86% 1022.7 hPa 0 mm - 123 W/m² -
1788626396 13.33° C 88% 1022.9 hPa 0 mm - 119 W/m² -
1788626093 12.78° C 89% 1022.8 hPa 0 mm - 67 W/m² -
1788625789 12.78° C 89% 1022.7 hPa 0 mm - 47 W/m² -
1788625484 12.78° C 89% 1022.8 hPa 0 mm - 48 W/m² -
1788625179 13.33° C 90% 1022.7 hPa 0 mm - 61 W/m² -
1788624878 12.78° C 91% 1022.7 hPa 0 mm - 79 W/m² -
1788624576 12.78° C 91% 1022.8 hPa 0 mm - 75 W/m² -
1788624270 12.78° C 91% 1022.8 hPa 0 mm - 71 W/m² -
1788623970 12.22° C 91% 1022.6 hPa 0 mm - 79 W/m² -
1788623665 12.22° C 92% 1022.6 hPa 0 mm - 84 W/m² -
1788623363 12.22° C 92% 1023 hPa 0 mm - 86 W/m² -
1788623059 11.67° C 93% 1022.7 hPa 0 mm - 83 W/m² -

* Rain latest hour (hover to see other rain measurements)
** Current wind speed in m/s (hover to see current wind gust speed)